Skip Page Navigation
NASA JPL Caltech
NASA Logo - Jet Propulsion Laboratory + View the NASA Portal
+ Center for Near-Earth Object Studies
JPL Home Earth Solar System Stars & Galaxies Technology
JPL Solar System Dynamics
BODIES ORBITS EPHEMERIDES TOOLS PHYSICAL DATA DISCOVERY FAQ SITE MAP
IMPORTANT: The SSD Announcement email list is now available. Major changes are coming in the near future, including possible hostname and/or URL changes. To be notified of such changes, subscribe to this email list.

Please visit this page for more details.


JPL Small-Body Database Browser
Search: [ help ]  
295738 (2008 UT83)
Classification: Main-belt Asteroid          SPK-ID: 2295738
Ephemeris | Orbit Diagram | Orbital Elements | Mission Design | Physical Parameters | Discovery Circumstances ]

[ show orbit diagram ]
Orbital Elements at Epoch 2458600.5 (2019-Apr-27.0) TDB
Reference: JPL 16 (heliocentric ecliptic J2000)
 Element Value Uncertainty (1-sigma)   Units 
e .1357985607460913 7.4287e-08  
a 2.753026857376276 2.8112e-08 au
q 2.379169772449243 2.0815e-07 au
i 9.844360108881888 8.1974e-06 deg
node 72.87995233432726 3.7087e-05 deg
peri 327.0652682189095 4.3482e-05 deg
M 122.6421664375715 2.1939e-05 deg
tp 2458032.103477759200
(2017-Oct-05.60347776)
9.9647e-05 TDB
period 1668.453468741088
4.57
2.5555e-05
6.997e-08
d
yr
n .2157686784466538 3.3049e-09 deg/d
Q 3.126883942303309 3.1929e-08 au
  Orbit Determination Parameters
   # obs. used (total)      240  
   data-arc span      5677 days (15.54 yr)  
   first obs. used      2003-09-17  
   last obs. used      2019-04-03  
   planetary ephem.      DE431  
   SB-pert. ephem.      SB431-N16  
   condition code      0  
   norm. resid. RMS      .59605  
   source      ORB  
   producer      Otto Matic  
   solution date      2019-Jul-14 11:21:39  

Additional Information
 Earth MOID = 1.39427 au 
 Jupiter MOID = 2.27051 au 
 T_jup = 3.310 
[ show covariance matrix ]

Ephemeris | Orbit Diagram | Orbital Elements | Mission Design | Physical Parameters | Discovery Circumstances ]

Physical Parameter Table
Parameter Symbol Value Units Sigma Reference Notes
absolute magnitude H 16.0   n/a MPO437322  

295738 (2008 UT83)          Discovered 2008-Oct-22 by Mt. Lemmon Survey at Mount Lemmon
Reference: 20110912/Numbers.arcLast Updated: 2011-09-14

Alternate Designations
 2008 UT83 = 2006 HO106 
Ephemeris | Orbit Diagram | Orbital Elements | Mission Design | Physical Parameters | Discovery Circumstances ]
ABOUT SSD CREDITS/AWARDS PRIVACY/COPYRIGHT GLOSSARY LINKS
FirstGov
(server date/time)  
NASA Home Page
Site Manager:   Ryan S. Park
Webmaster  Alan B. Chamberlin